Regional Weather Roundup
Issued by NWS

Home | Current Version | Previous Version | Text Only | Print | Product List | Glossary On
Versions: 1 2 3 4 5 6 7 8 9 10 11 12 13 14 15 16 17 18 19 20 21 22 23 24 25 26 27 28 29 30 31 32 33 34 35 36 37 38 39 40 41 42 43 44 45 46 47 48 49 50
000
ASUS44 KMEG 161600
RWRTN
TENNESSEE HOURLY STATE WEATHER ROUNDUP
NATIONAL WEATHER SERVICE MEMPHIS TN
1000 AM CST MON JAN 16 2017

TNZ002-004-019-021-049-052-054-088>092-161700-
WEST TENNESSEE

CITY           SKY/WX    TMP DP  RH WIND       PRES   REMARKS
MEMPHIS INTL   CLOUDY    61  59  93 S14       30.14F
NWS MEMPHIS      N/A     60 N/A N/A MISG        N/A
JACKSON        CLOUDY    64  56  75 S8        30.17S
DYERSBURG      CLOUDY    57  52  82 S7        30.15F
UNION CITY     MOSUNNY  N/A N/A N/A CALM      30.15S
PARIS          CLOUDY    52  52 100 CALM      30.19R
$$

TNZ008-025-027-028-033-062-065-066-161700-
NORTH MIDDLE TENNESSEE

CITY           SKY/WX    TMP DP  RH WIND       PRES   REMARKS
NASHVILLE      CLOUDY    58  52  80 S3        30.25S
CLARKSVILLE    CLOUDY    50  49  96 SW3       30.23R FOG
SMYRNA         CLOUDY    57  52  83 CALM      30.26R
CROSSVILLE     CLOUDY    57  50  77 S6        30.31R
$$

TNZ061-075-076-078-094-096-097-161700-
SOUTH MIDDLE TENNESSEE

CITY           SKY/WX    TMP DP  RH WIND       PRES   REMARKS
TULLAHOMA      MOSUNNY   63  52  67 S6        30.28S
WINCHESTER     CLOUDY    63  52  67 S7        30.28S
MCMINNVILLE    CLOUDY    63  57  82 CALM      30.28R
COLUMBIA       PTSUNNY   63  63 100 S7        30.22S
SHELBYVILLE    CLOUDY    66  54  63 S7        30.27R
$$

TNZ017-018-042-046-047-161700-
NORTHEAST TENNESSEE

CITY           SKY/WX    TMP DP  RH WIND       PRES   REMARKS
TRI CITIES     CLOUDY    58  53  84 CALM      30.34R
$$

TNZ012-013-036-069-073-074-161700-
CENTRAL EAST TENNESSEE

CITY           SKY/WX    TMP DP  RH WIND       PRES   REMARKS
KNOXVILLE      FOG       55  53  93 VRB3      30.31S VSB 1
OAK RIDGE      CLOUDY    57  53  86 CALM      30.34R
GATLINBURG     PTSUNNY   54  54 100 CALM      30.32F
$$

TNZ083-085-099-161700-
SOUTHEAST TENNESSEE

CITY           SKY/WX    TMP DP  RH WIND       PRES   REMARKS
CHATTANOOGA    CLOUDY    56  52  86 CALM      30.32S
$$

SKY/WX REPORTED AS FAIR MEANS FEW OR NO CLOUDS BELOW
12 THOUSAND FEET.




USA.gov is the U.S. government's official web portal to all federal, state and local government web resources and services.